This is the latest recevied weather packets stored in our database for station/object KF0JHJ. If no packets are shown the sender has not sent any weather packets the latest 10 day(s).
| Time | Temp. | Humidity | Pressure | Rain* | Wind** | Luminosity | Snow |
|---|---|---|---|---|---|---|---|
| 1777469317 | 6.67° C | 62% | 1017.1 hPa | - | - | 198 W/m² | - |
| 1777469013 | 6.11° C | 65% | 1017.2 hPa | - | - | 188 W/m² | - |
| 1777468708 | 5.56° C | 66% | 1017.3 hPa | - | - | 160 W/m² | - |
| 1777468405 | 5.56° C | 67% | 1017.4 hPa | - | - | 128 W/m² | - |
| 1777468101 | 5° C | 69% | 1017.5 hPa | - | - | 79 W/m² | - |
| 1777467798 | 4.44° C | 71% | 1017.5 hPa | - | - | 59 W/m² | - |
| 1777467493 | 3.89° C | 72% | 1017.4 hPa | - | - | 31 W/m² | - |
| 1777467189 | 3.89° C | 74% | 1017.4 hPa | - | - | 29 W/m² | - |
| 1777466886 | 3.33° C | 74% | 1017.3 hPa | - | - | 28 W/m² | - |
| 1777466583 | 3.33° C | 75% | 1017.3 hPa | - | - | 27 W/m² | - |
| 1777466279 | 2.78° C | 76% | 1017.5 hPa | - | - | 27 W/m² | - |
| 1777465976 | 2.78° C | 77% | 1017.3 hPa | - | - | 26 W/m² | - |
| 1777465672 | 2.78° C | 76% | 1017.2 hPa | - | - | 23 W/m² | - |
| 1777465368 | 2.22° C | 78% | 1017.2 hPa | - | - | 22 W/m² | - |
| 1777465066 | 2.22° C | 79% | 1017.2 hPa | - | - | 21 W/m² | - |
| 1777464762 | 2.22° C | 79% | 1017.1 hPa | - | - | 18 W/m² | - |
| 1777464459 | 1.67° C | 80% | 1017.1 hPa | - | - | 17 W/m² | - |
| 1777464155 | 1.67° C | 82% | 1017 hPa | - | - | 16 W/m² | - |
| 1777463854 | 1.11° C | 84% | 1017.1 hPa | - | - | 13 W/m² | - |
| 1777463550 | 0.56° C | 85% | 1016.8 hPa | - | - | 12 W/m² | - |
| 1777463245 | 0.56° C | 85% | 1016.8 hPa | - | - | 10 W/m² | - |
| 1777462942 | 0.56° C | 86% | 1017 hPa | - | - | 10 W/m² | - |
| 1777462638 | 0.56° C | 86% | 1016.8 hPa | - | - | 7 W/m² | - |
| 1777462333 | 0.56° C | 86% | 1016.8 hPa | - | - | 6 W/m² | - |
| 1777462029 | 0° C | 85% | 1016.7 hPa | - | - | 5 W/m² | - |
* Rain since midnight (hover to see other rain measurements)
** Current wind speed in m/s (hover to see current wind gust speed)